When you browse on this site, cookies collect data to enhance your experience and personalize the content and advertising you see.
Visit our Privacy Policy to learn more. By continuing to use the site, you agree to this use of cookies and data.
  • In Denmark
  • List of Countries
  • For 7 days
  • Water Temperature
  • Weather Map
  • Weather Widgets
  • user-avatar
    Login

    Hourly Weather Krichev

    Today, 17 February, Monday

    Time Temperature Precipitation Wind Pressure Humidity
    00:00 -2°C° 0 mm 8 mps 749 mmHg 75%
    01:00 -1°C° 0 mm 8 mps 749 mmHg 75%
    02:00 -1°C° 0 mm 8 mps 748 mmHg 76%
    03:00 -1°C° 0.2 mm 8 mps 748 mmHg 77%
    04:00 -1°C° 0.2 mm 8 mps 747 mmHg 78%
    05:00 -1°C° 0.2 mm 9 mps 746 mmHg 79%
    06:00 -1°C° 0 mm 9 mps 746 mmHg 77%
    07:00 -1°C° 0 mm 9 mps 746 mmHg 75%
    08:00 -1°C° 0 mm 9 mps 746 mmHg 73%
    09:00 0°C° 0 mm 8 mps 745 mmHg 71%
    10:00 +1°C° 0 mm 8 mps 745 mmHg 69%
    11:00 +2°C° 0 mm 8 mps 745 mmHg 67%
    12:00 +2°C° 0 mm 8 mps 745 mmHg 67%
    13:00 +3°C° 0 mm 7 mps 745 mmHg 67%
    14:00 +4°C° 0 mm 7 mps 745 mmHg 67%
    15:00 +4°C° 0 mm 7 mps 745 mmHg 69%
    16:00 +4°C° 0 mm 6 mps 745 mmHg 70%
    17:00 +4°C° 0 mm 6 mps 745 mmHg 72%
    18:00 +4°C° 0 mm 6 mps 746 mmHg 74%
    19:00 +4°C° 0 mm 6 mps 746 mmHg 75%
    20:00 +4°C° 0 mm 6 mps 747 mmHg 77%
    21:00 +5°C° 0.1 mm 5 mps 747 mmHg 81%
    22:00 +3°C° 0.1 mm 5 mps 747 mmHg 84%
    23:00 +4°C° 0.1 mm 4 mps 747 mmHg 87%

    Tomorrow, 18 February, Tuesday

    Time Temperature Precipitation Wind Pressure Humidity
    00:00 +4°C° 0.1 mm 4 mps 747 mmHg 87%
    01:00 +4°C° 0.1 mm 4 mps 747 mmHg 87%
    02:00 +4°C° 0.1 mm 4 mps 747 mmHg 87%
    03:00 +4°C° 0.1 mm 4 mps 747 mmHg 89%
    04:00 +4°C° 0.1 mm 4 mps 746 mmHg 91%
    05:00 +4°C° 0.1 mm 4 mps 746 mmHg 92%
    06:00 +3°C° 0.3 mm 5 mps 746 mmHg 92%
    07:00 +2°C° 0.3 mm 5 mps 746 mmHg 92%
    08:00 +2°C° 0.3 mm 5 mps 746 mmHg 92%
    09:00 +3°C° 0.4 mm 4 mps 746 mmHg 92%
    10:00 +3°C° 0.4 mm 4 mps 745 mmHg 93%
    11:00 +3°C° 0.4 mm 3 mps 745 mmHg 93%
    12:00 +3°C° 0.4 mm 3 mps 744 mmHg 94%
    13:00 +4°C° 0.4 mm 2 mps 744 mmHg 95%
    14:00 +4°C° 0.4 mm 2 mps 744 mmHg 96%
    15:00 +4°C° 0.8 mm 2 mps 743 mmHg 96%
    16:00 +4°C° 0.8 mm 2 mps 743 mmHg 96%
    17:00 +3°C° 0.8 mm 3 mps 743 mmHg 96%
    18:00 +2°C° 0 mm 3 mps 743 mmHg 95%
    19:00 +2°C° 0 mm 3 mps 744 mmHg 94%
    20:00 0°C° 0 mm 4 mps 744 mmHg 92%
    21:00 0°C° 0 mm 4 mps 744 mmHg 90%
    22:00 0°C° 0 mm 5 mps 744 mmHg 88%
    23:00 0°C° 0 mm 5 mps 744 mmHg 86%

    Day after tomorrow, 19 February, Wednesday

    Time Temperature Precipitation Wind Pressure Humidity
    00:00 0°C° 0 mm 5 mps 744 mmHg 88%
    01:00 0°C° 0 mm 4 mps 745 mmHg 89%
    02:00 -1°C° 0 mm 4 mps 745 mmHg 90%
    03:00 0°C° 0 mm 4 mps 745 mmHg 91%
    04:00 0°C° 0 mm 5 mps 745 mmHg 93%
    05:00 0°C° 0 mm 5 mps 745 mmHg 94%
    06:00 0°C° 0 mm 5 mps 745 mmHg 91%
    07:00 -1°C° 0 mm 5 mps 746 mmHg 88%
    08:00 -1°C° 0 mm 5 mps 746 mmHg 84%
    09:00 0°C° 0 mm 5 mps 746 mmHg 80%
    10:00 +1°C° 0 mm 5 mps 746 mmHg 75%
    11:00 +1°C° 0 mm 5 mps 746 mmHg 71%
    12:00 +1°C° 0 mm 5 mps 746 mmHg 72%
    13:00 +1°C° 0 mm 5 mps 746 mmHg 73%
    14:00 +1°C° 0 mm 5 mps 746 mmHg 74%
    15:00 +1°C° 0 mm 5 mps 746 mmHg 74%
    16:00 +1°C° 0 mm 4 mps 746 mmHg 74%
    17:00 +2°C° 0 mm 3 mps 746 mmHg 74%
    18:00 +1°C° 0 mm 3 mps 746 mmHg 77%
    19:00 0°C° 0 mm 3 mps 746 mmHg 80%
    20:00 0°C° 0 mm 3 mps 746 mmHg 83%
    21:00 0°C° 0 mm 3 mps 746 mmHg 83%
    22:00 0°C° 0 mm 3 mps 746 mmHg 84%
    23:00 0°C° 0 mm 3 mps 746 mmHg 85%

    20 February, Thursday

    Time Temperature Precipitation Wind Pressure Humidity
    00:00 0°C° 0 mm 3 mps 746 mmHg 85%
    01:00 0°C° 0 mm 3 mps 746 mmHg 85%
    02:00 0°C° 0 mm 3 mps 746 mmHg 84%
    03:00 -1°C° 0 mm 3 mps 745 mmHg 85%
    04:00 -1°C° 0 mm 3 mps 745 mmHg 85%
    05:00 -1°C° 0 mm 3 mps 745 mmHg 85%
    06:00 0°C° 0 mm 3 mps 745 mmHg 85%
    07:00 0°C° 0 mm 3 mps 745 mmHg 85%
    08:00 0°C° 0 mm 3 mps 745 mmHg 85%
    09:00 0°C° 0 mm 3 mps 745 mmHg 82%
    10:00 +1°C° 0 mm 3 mps 746 mmHg 79%
    11:00 +1°C° 0 mm 4 mps 746 mmHg 77%
    12:00 +1°C° 0 mm 4 mps 746 mmHg 80%
    13:00 +1°C° 0 mm 4 mps 746 mmHg 83%
    14:00 +1°C° 0 mm 4 mps 746 mmHg 86%
    15:00 +2°C° 0.1 mm 3 mps 746 mmHg 89%
    16:00 +1°C° 0.1 mm 3 mps 746 mmHg 93%
    17:00 +2°C° 0.1 mm 2 mps 746 mmHg 97%
    18:00 +2°C° 0.1 mm 2 mps 747 mmHg 97%
    19:00 +2°C° 0.1 mm 2 mps 747 mmHg 97%
    20:00 +1°C° 0.1 mm 2 mps 748 mmHg 98%
    21:00 +1°C° 0.1 mm 2 mps 748 mmHg 97%
    22:00 +1°C° 0.1 mm 2 mps 748 mmHg 97%
    23:00 +1°C° 0.1 mm 2 mps 748 mmHg 97%

    21 February, Friday

    Time Temperature Precipitation Wind Pressure Humidity
    00:00 +1°C° 0 mm 2 mps 749 mmHg 96%
    01:00 -1°C° 0 mm 2 mps 749 mmHg 96%
    02:00 -1°C° 0 mm 2 mps 749 mmHg 95%
    03:00 +1°C° 0 mm 1 mps 749 mmHg 95%
    04:00 0°C° 0 mm 1 mps 749 mmHg 94%
    05:00 0°C° 0 mm 1 mps 749 mmHg 94%
    06:00 0°C° 0 mm 1 mps 749 mmHg 94%
    07:00 +1°C° 0 mm 1 mps 750 mmHg 93%
    08:00 +1°C° 0 mm 1 mps 750 mmHg 93%
    15:00 +3°C° 0 mm 2 mps 750 mmHg 78%
    16:00 +2°C° 0 mm 2 mps 749 mmHg 82%
    17:00 +1°C° 0 mm 2 mps 749 mmHg 85%
    18:00 +1°C° 0 mm 2 mps 749 mmHg 87%
    19:00 -1°C° 0 mm 2 mps 749 mmHg 89%
    20:00 -1°C° 0 mm 2 mps 749 mmHg 90%
    21:00 -1°C° 0 mm 2 mps 749 mmHg 90%
    22:00 -1°C° 0 mm 3 mps 749 mmHg 89%
    23:00 -1°C° 0 mm 3 mps 749 mmHg 89%

    22 February, Saturday

    Time Temperature Precipitation Wind Pressure Humidity
    00:00 -1°C° 0 mm 3 mps 749 mmHg 89%
    01:00 -1°C° 0 mm 3 mps 749 mmHg 89%
    02:00 -1°C° 0 mm 3 mps 749 mmHg 90%
    03:00 -1°C° 0.1 mm 3 mps 749 mmHg 92%
    04:00 -1°C° 0.1 mm 3 mps 749 mmHg 94%
    05:00 -1°C° 0.1 mm 2 mps 748 mmHg 97%
    06:00 -1°C° 0.2 mm 2 mps 748 mmHg 97%
    07:00 -1°C° 0.2 mm 2 mps 748 mmHg 97%
    08:00 +1°C° 0.2 mm 2 mps 748 mmHg 97%
    09:00 0°C° 0 mm 3 mps 748 mmHg 90%
    10:00 +1°C° 0 mm 3 mps 748 mmHg 84%
    11:00 0°C° 0 mm 4 mps 747 mmHg 77%
    12:00 +1°C° 0 mm 4 mps 747 mmHg 75%
    13:00 +1°C° 0 mm 5 mps 746 mmHg 73%
    14:00 +1°C° 0 mm 5 mps 745 mmHg 72%
    15:00 +1°C° 0 mm 5 mps 744 mmHg 73%
    16:00 +1°C° 0 mm 5 mps 743 mmHg 75%
    17:00 0°C° 0 mm 5 mps 743 mmHg 77%
    18:00 -1°C° 0.1 mm 6 mps 742 mmHg 82%
    19:00 -1°C° 0.1 mm 7 mps 741 mmHg 87%
    20:00 -2°C° 0.1 mm 8 mps 740 mmHg 92%
    21:00 -2°C° 0.8 mm 8 mps 738 mmHg 93%
    22:00 -2°C° 0.8 mm 8 mps 737 mmHg 95%
    23:00 -2°C° 0.8 mm 8 mps 736 mmHg 96%
    Show more